Date String (YYYY-MM-DD hh:mm:ss) UTC,Instrument flags,Ambient pressure (hPa),Sample flow (lpm),Bypass flow (lpm),Sample temperature (°C),Ambient temperature (°C),ASC tube jacket temperature (°C),LED temperature (°C),Box temperature (°C),Sample RH (%),Span deviation,Mass concentration (μg/m³),Mass concentration (μg/m³),Mass concentration (μg/m³)
DateTimeUTC,F1_M11,P_M11,Q1_M11,Q2_M11,T1_M11,T2_M11,T3_M11,T4_M11,T5_M11,U1_M11,ZSPAN_M11,X2_M11,X0_M11,X1_M11
2021-10-09 19:00:00,,0820.9,4.98,0.00,29.3,28.4,00.0,38.5,30.9,14.0,0000.0,0001.53,0003.24,0000.90
2021-10-09 19:01:00,,0820.8,5.01,0.00,29.2,28.4,00.0,38.5,30.9,14.0,0000.0,0001.50,0002.96,0000.91
2021-10-09 19:02:00,,0820.8,5.00,0.00,29.2,28.3,00.0,38.4,30.9,13.8,0000.0,0001.43,0003.44,0000.90
2021-10-09 19:03:00,,0820.8,5.01,0.00,29.2,28.3,00.0,38.4,30.9,14.2,0000.0,0001.42,0003.55,0000.91
2021-10-09 19:04:00,,0820.7,5.00,0.00,29.2,28.3,00.0,38.4,30.9,14.3,0000.0,0001.42,0003.56,0000.92
2021-10-09 19:05:00,,0820.7,5.00,0.00,29.2,28.3,00.0,38.4,30.9,14.1,0000.0,0001.40,0003.49,0000.92
2021-10-09 19:06:00,,0820.7,4.99,0.00,29.2,28.4,00.0,38.4,30.8,14.0,0000.0,0001.40,0004.35,0000.91
2021-10-09 19:07:00,,0820.7,5.00,0.00,29.2,28.4,00.0,38.4,30.9,13.4,0000.0,0001.43,0005.45,0000.91
2021-10-09 19:08:00,,0820.7,5.01,0.00,29.2,28.4,00.0,38.4,30.9,13.4,0000.0,0001.35,0005.26,0000.89
2021-10-09 19:09:00,,0820.6,5.00,0.00,29.2,28.3,00.0,38.4,30.9,13.4,0000.0,0001.27,0005.07,0000.87
2021-10-09 19:10:00,,0820.7,5.00,0.00,29.2,28.4,00.0,38.4,31.0,13.1,0000.0,0001.30,0005.15,0000.88
2021-10-09 19:11:00,,0820.6,4.99,0.00,29.2,28.4,00.0,38.4,31.0,12.3,0000.0,0001.34,0005.20,0000.88
2021-10-09 19:12:00,,0820.6,5.00,0.00,29.3,28.4,00.0,38.4,30.9,13.3,0000.0,0001.32,0005.10,0000.89
2021-10-09 19:13:00,,0820.6,5.00,0.00,29.3,28.4,00.0,38.4,30.9,13.8,0000.0,0001.32,0004.37,0000.88
2021-10-09 19:14:00,,0820.6,5.00,0.00,29.3,28.4,00.0,38.4,30.9,13.0,0000.0,0001.34,0004.17,0000.88
2021-10-09 19:15:00,,0820.6,5.00,0.00,29.3,28.4,00.0,38.4,30.9,12.6,0000.0,0001.40,0004.30,0000.89
2021-10-09 19:16:00,,0820.6,5.00,0.00,29.3,28.4,00.0,38.4,31.0,11.6,0000.0,0001.44,0005.01,0000.90
2021-10-09 19:17:00,,0820.6,5.00,0.00,29.3,28.5,00.0,38.4,31.0,12.0,0000.0,0001.44,0004.72,0000.91
2021-10-09 19:18:00,,0820.6,5.00,0.00,29.3,28.5,00.0,38.4,31.0,12.0,0000.0,0001.43,0003.83,0000.91
2021-10-09 19:19:00,,0820.6,4.99,0.00,29.3,28.5,00.0,38.4,31.0,11.6,0000.0,0001.47,0003.93,0000.93
2021-10-09 19:20:00,,0820.6,5.01,0.00,29.3,28.5,00.0,38.4,31.0,12.2,0000.0,0001.56,0004.23,0000.95
2021-10-09 19:21:00,,0820.6,4.99,0.00,29.3,28.4,00.0,38.4,31.0,12.5,0000.0,0001.51,0004.06,0000.95
2021-10-09 19:22:00,,0820.6,5.00,0.00,29.3,28.4,00.0,38.4,31.0,11.9,0000.0,0001.44,0003.84,0000.94
2021-10-09 19:23:00,,0820.7,5.00,0.00,29.3,28.4,00.0,38.4,31.0,12.2,0000.0,0001.42,0003.83,0000.95
2021-10-09 19:24:00,,0820.6,4.99,0.00,29.4,28.4,00.0,38.5,31.1,12.7,0000.0,0001.45,0004.17,0000.96
2021-10-09 19:25:00,,0820.6,5.01,0.00,29.4,28.5,00.0,38.5,31.1,12.6,0000.0,0001.42,0004.09,0000.95
2021-10-09 19:26:00,,0820.7,4.98,0.00,29.4,28.4,00.0,38.5,31.0,12.4,0000.0,0001.36,0004.03,0000.94
2021-10-09 19:27:00,,0820.6,5.00,0.00,29.4,28.4,00.0,38.5,31.1,12.4,0000.0,0001.37,0003.49,0000.94
2021-10-09 19:28:00,,0820.6,5.00,0.00,29.4,28.4,00.0,38.5,31.1,12.3,0000.0,0001.36,0002.85,0000.93
2021-10-09 19:29:00,,0820.5,5.00,0.00,29.4,28.4,00.0,38.5,31.1,12.3,0000.0,0001.37,0002.78,0000.93
2021-10-09 19:30:00,,0820.5,5.00,0.00,29.4,28.5,00.0,38.5,31.1,11.9,0000.0,0001.36,0002.74,0000.93
2021-10-09 19:31:00,,0820.5,5.00,0.00,29.4,28.4,00.0,38.5,31.1,12.0,0000.0,0001.34,0002.66,0000.92
2021-10-09 19:32:00,,0820.4,5.01,0.00,29.5,28.4,00.0,38.5,31.1,12.4,0000.0,0001.39,0002.71,0000.92
2021-10-09 19:33:00,,0820.4,5.01,0.00,29.5,28.5,00.0,38.5,31.2,12.4,0000.0,0001.41,0002.85,0000.93
2021-10-09 19:34:00,,0820.3,5.01,0.00,29.5,28.5,00.0,38.5,31.2,12.6,0000.0,0001.44,0003.10,0000.93
2021-10-09 19:35:00,,0820.3,5.00,0.00,29.5,28.6,00.0,38.6,31.2,12.7,0000.0,0001.43,0002.82,0000.92
2021-10-09 19:36:00,,0820.3,5.00,0.00,29.5,28.6,00.0,38.6,31.1,12.5,0000.0,0001.43,0003.15,0000.92
2021-10-09 19:37:00,,0820.2,5.00,0.00,29.5,28.6,00.0,38.6,31.2,12.6,0000.0,0001.44,0003.69,0000.92
2021-10-09 19:38:00,,0820.3,5.01,0.00,29.5,28.6,00.0,38.6,31.2,12.6,0000.0,0001.48,0003.82,0000.92
2021-10-09 19:39:00,,0820.3,5.00,0.00,29.5,28.6,00.0,38.6,31.2,12.4,0000.0,0001.53,0004.39,0000.92
2021-10-09 19:40:00,,0820.3,4.99,0.00,29.5,28.6,00.0,38.6,31.1,12.3,0000.0,0001.52,0004.50,0000.92
2021-10-09 19:41:00,,0820.4,5.01,0.00,29.5,28.6,00.0,38.6,31.1,12.3,0000.0,0001.56,0004.65,0000.92
2021-10-09 19:42:00,,0820.3,5.00,0.00,29.5,28.6,00.0,38.6,31.2,12.4,0000.0,0001.58,0004.99,0000.92
2021-10-09 19:43:00,,0820.3,5.00,0.00,29.5,28.7,00.0,38.6,31.2,12.2,0000.0,0001.58,0005.26,0000.91
2021-10-09 19:44:00,,0820.2,4.99,0.00,29.5,28.7,00.0,38.6,31.2,12.0,0000.0,0001.60,0005.25,0000.90
2021-10-09 19:45:00,,0820.2,5.00,0.00,29.5,28.7,00.0,38.6,31.2,12.1,0000.0,0001.58,0005.00,0000.89
2021-10-09 19:46:00,,0820.2,5.00,0.00,29.5,28.7,00.0,38.6,31.2,12.1,0000.0,0001.56,0004.85,0000.89
2021-10-09 19:47:00,,0820.2,5.00,0.00,29.5,28.8,00.0,38.6,31.2,11.9,0000.0,0001.60,0004.93,0000.89
2021-10-09 19:48:00,,0820.1,4.99,0.00,29.5,28.8,00.0,38.6,31.2,11.8,0000.0,0001.60,0004.33,0000.89
2021-10-09 19:49:00,,0820.2,5.00,0.00,29.6,28.8,00.0,38.6,31.3,11.9,0000.0,0001.57,0004.30,0000.89
2021-10-09 19:50:00,,0820.2,5.00,0.00,29.6,28.8,00.0,38.7,31.3,12.0,0000.0,0001.53,0004.17,0000.88
2021-10-09 19:51:00,,0820.1,5.00,0.00,29.6,28.8,00.0,38.7,31.3,11.9,0000.0,0001.50,0003.93,0000.87
2021-10-09 19:52:00,,0820.1,5.00,0.00,29.6,28.8,00.0,38.7,31.3,12.0,0000.0,0001.47,0003.83,0000.87
2021-10-09 19:53:00,,0820.1,5.00,0.00,29.6,28.9,00.0,38.7,31.3,11.7,0000.0,0001.44,0003.47,0000.87
2021-10-09 19:54:00,,0820.2,5.00,0.00,29.6,28.8,00.0,38.7,31.3,11.8,0000.0,0001.42,0003.10,0000.88
2021-10-09 19:55:00,,0820.2,5.00,0.00,29.6,28.8,00.0,38.7,31.3,12.1,0000.0,0001.45,0004.13,0000.89
2021-10-09 19:56:00,,0820.2,5.00,0.00,29.6,28.8,00.0,38.7,31.3,12.3,0000.0,0001.46,0005.25,0000.88
2021-10-09 19:57:00,,0820.3,5.01,0.00,29.6,28.9,00.0,38.7,31.3,11.5,0000.0,0001.48,0005.36,0000.87
2021-10-09 19:58:00,,0820.3,5.00,0.00,29.6,28.9,00.0,38.7,31.3,11.3,0000.0,0001.48,0005.26,0000.87
2021-10-09 19:59:00,,0820.3,5.00,0.00,29.6,28.9,00.0,38.7,31.3,11.5,0000.0,0001.49,0005.18,0000.88
